Latest Coastal Weather Observations for Spring Bay

IDT60701

Issued at 9:12 am EDT Saturday 25 November 2017 (issued every 10 minutes, with the page automatically refreshed every 10 minutes)

About coastal observations | Map of coastal stations | Coastal observations for TAS | Marine services | Other Formats
Station Details ID: 092133 Name: SPRING BAY NTC AWS Lat: -42.55 Lon: 147.93 Height: 0.0 m
Data from the previous 72 hours. | See also: Recent months for locations in Tasmania
Date/Time
EDT
Temp
°C
Wind Pressure Rain since
9am
mm
Weather Cloud Vis
km
Sea
Height
m
Swell
Dir  Spd
kts
Gust
kts
hPa Trend Height
m
Period
s
Dir
25/09:00am 16.1 - - - 1017.0 - - - - - - - - -
25/08:30am 16.2 - - - 1016.7 - - - - - - - - -
25/08:00am 16.2 - - - 1016.1 - - - - - - - - -
25/07:30am 16.2 - - - 1016.3 - - - - - - - - -
25/07:00am 16.1 - - - 1016.0 - - - - - - - - -
25/06:30am 16.0 - - - 1015.7 - - - - - - - - -
25/06:00am 16.0 - - - 1015.6 - - - - - - - - -
25/05:30am 15.8 - - - 1015.4 - - - - - - - - -
25/05:00am 15.9 - - - 1015.2 - - - - - - - - -
25/04:30am 15.7 - - - 1015.0 - - - - - - - - -
25/04:00am 15.7 - - - 1014.9 - - - - - - - - -
25/03:30am 15.9 - - - 1014.9 - - - - - - - - -
25/03:00am 15.9 - - - 1015.0 - - - - - - - - -
25/02:30am 15.9 - - - 1015.0 - - - - - - - - -
25/02:00am 16.1 - - - 1015.1 - - - - - - - - -
25/01:30am 16.2 - - - 1015.2 - - - - - - - - -
25/01:00am 16.1 - - - 1015.1 - - - - - - - - -
25/12:30am 16.5 - - - 1015.2 - - - - - - - - -
25/12:00am 16.6 - - - 1015.2 - - - - - - - - -
 
Date/Time
EDT
Temp
°C
Wind Pressure Rain since
9am
mm
Weather Cloud Vis
km
Sea
Height
m
Swell
Dir  Spd
kts
Gust
kts
hPa Trend Height
m
Period
s
Dir
24/11:30pm 16.7 - - - 1014.9 - - - - - - - - -
24/11:00pm 16.9 - - - 1014.8 - - - - - - - - -
24/10:30pm 16.8 - - - 1014.5 - - - - - - - - -
24/10:00pm 17.0 - - - 1014.8 - - - - - - - - -
24/09:30pm 17.0 - - - 1014.5 - - - - - - - - -
24/09:00pm 17.3 - - - 1014.4 - - - - - - - - -
24/08:30pm 17.3 - - - 1014.1 - - - - - - - - -
24/08:00pm 17.4 - - - 1013.8 - - - - - - - - -
24/07:30pm 18.1 - - - 1013.8 - - - - - - - - -
24/07:00pm 17.8 - - - 1014.1 - - - - - - - - -
24/06:30pm 17.9 - - - 1014.0 - - - - - - - - -
24/06:00pm 18.2 - - - 1013.9 - - - - - - - - -
24/05:30pm 18.3 - - - 1013.6 - - - - - - - - -
24/05:00pm 18.1 - - - 1013.4 - - - - - - - - -
24/04:30pm 18.3 - - - 1013.0 - - - - - - - - -
24/04:00pm 18.8 - - - 1012.8 - - - - - - - - -
24/03:30pm 18.3 - - - 1012.7 - - - - - - - - -
24/03:00pm 18.8 - - - 1012.6 - - - - - - - - -
24/02:30pm 19.7 - - - 1012.6 - - - - - - - - -
24/02:00pm 19.9 - - - 1012.7 - - - - - - - - -
24/01:30pm 19.6 - - - 1012.8 - - - - - - - - -
24/01:00pm 20.2 - - - 1012.6 - - - - - - - - -
24/12:30pm 19.5 - - - 1012.8 - - - - - - - - -
24/12:00pm 20.4 - - - 1012.7 - - - - - - - - -
24/11:30am 19.8 - - - 1013.0 - - - - - - - - -
24/11:00am 19.7 - - - 1012.9 - - - - - - - - -
24/10:30am 20.9 - - - 1012.9 - - - - - - - - -
24/10:00am 20.3 - - - 1013.1 - - - - - - - - -
24/09:30am 19.7 - - - 1013.1 - - - - - - - - -
24/09:00am 19.4 - - - 1013.4 - - - - - - - - -
24/08:30am 18.5 - - - 1013.3 - - - - - - - - -
24/08:00am 17.4 - - - 1013.0 - - - - - - - - -
24/07:30am 17.1 - - - 1012.9 - - - - - - - - -
24/07:00am 15.9 - - - 1012.5 - - - - - - - - -
24/06:30am 15.7 - - - 1012.6 - - - - - - - - -
24/06:00am 15.6 - - - 1012.3 - - - - - - - - -
24/05:30am 15.6 - - - 1012.2 - - - - - - - - -
24/05:00am 15.8 - - - 1012.0 - - - - - - - - -
24/04:30am 15.4 - - - 1011.7 - - - - - - - - -
24/04:00am 15.5 - - - 1011.8 - - - - - - - - -
24/03:30am 15.7 - - - 1012.0 - - - - - - - - -
24/03:00am 16.0 - - - 1012.0 - - - - - - - - -
24/02:30am 16.2 - - - 1012.1 - - - - - - - - -
24/02:00am 16.7 - - - 1012.1 - - - - - - - - -
24/01:30am 17.6 - - - 1012.4 - - - - - - - - -
24/01:00am 17.6 - - - 1012.7 - - - - - - - - -
24/12:30am 17.4 - - - 1013.1 - - - - - - - - -
24/12:00am 17.4 - - - 1013.0 - - - - - - - - -
 
Date/Time
EDT
Temp
°C
Wind Pressure Rain since
9am
mm
Weather Cloud Vis
km
Sea
Height
m
Swell
Dir  Spd
kts
Gust
kts
hPa Trend Height
m
Period
s
Dir
23/11:30pm 17.4 - - - 1013.3 - - - - - - - - -
23/11:00pm 17.8 - - - 1013.4 - - - - - - - - -
23/10:30pm 18.0 - - - 1013.6 - - - - - - - - -
23/10:00pm 18.1 - - - 1013.4 - - - - - - - - -
23/09:30pm 18.1 - - - 1013.2 - - - - - - - - -
23/09:00pm 18.2 - - - 1012.9 - - - - - - - - -
23/08:30pm 18.1 - - - 1012.7 - - - - - - - - -
23/08:00pm 18.3 - - - 1012.5 - - - - - - - - -
23/07:30pm 19.1 - - - 1012.4 - - - - - - - - -
23/07:00pm 19.6 - - - 1011.9 - - - - - - - - -
23/06:30pm 20.1 - - - 1011.4 - - - - - - - - -
23/06:00pm 20.9 - - - 1011.2 - - - - - - - - -
23/05:30pm 20.6 - - - 1011.2 - - - - - - - - -
23/05:00pm 20.9 - - - 1011.3 - - - - - - - - -
23/04:30pm 21.4 - - - 1011.4 - - - - - - - - -
23/04:00pm 21.3 - - - 1011.6 - - - - - - - - -
23/03:30pm 21.3 - - - 1011.6 - - - - - - - - -
23/03:00pm 21.4 - - - 1011.8 - - - - - - - - -
23/02:30pm 21.8 - - - 1012.0 - - - - - - - - -
23/02:00pm 21.7 - - - 1012.3 - - - - - - - - -
23/01:30pm 21.9 - - - 1012.7 - - - - - - - - -
23/01:00pm 21.7 - - - 1013.0 - - - - - - - - -
23/12:30pm 21.8 - - - 1013.3 - - - - - - - - -
23/12:00pm 21.7 - - - 1013.5 - - - - - - - - -
23/11:30am 21.4 - - - 1013.5 - - - - - - - - -
23/11:00am 21.1 - - - 1013.7 - - - - - - - - -
23/10:30am 20.3 - - - 1014.0 - - - - - - - - -
23/10:00am 20.0 - - - 1014.2 - - - - - - - - -
23/09:30am 19.6 - - - 1014.5 - - - - - - - - -
23/09:00am 19.4 - - - 1014.8 - - - - - - - - -
23/08:30am 18.9 - - - 1015.0 - - - - - - - - -
23/08:00am 18.2 - - - 1015.1 - - - - - - - - -
23/07:30am 17.5 - - - 1015.2 - - - - - - - - -
23/07:00am 16.6 - - - 1015.3 - - - - - - - - -
23/06:30am 16.1 - - - 1015.2 - - - - - - - - -
23/06:00am 16.1 - - - 1015.3 - - - - - - - - -
23/05:30am 15.9 - - - 1015.4 - - - - - - - - -
23/05:00am 15.6 - - - 1015.4 - - - - - - - - -
23/04:30am 14.8 - - - 1015.4 - - - - - - - - -
23/04:00am 14.9 - - - 1015.6 - - - - - - - - -
23/03:30am 14.0 - - - 1015.8 - - - - - - - - -
23/03:00am 13.7 - - - 1016.0 - - - - - - - - -
23/02:30am 13.9 - - - 1016.2 - - - - - - - - -
23/02:00am 14.0 - - - 1016.5 - - - - - - - - -
23/01:30am 14.3 - - - 1016.7 - - - - - - - - -
23/01:00am 14.5 - - - 1016.9 - - - - - - - - -
23/12:30am 15.1 - - - 1017.1 - - - - - - - - -
23/12:00am 15.4 - - - 1017.2 - - - - - - - - -
 
Date/Time
EDT
Temp
°C
Wind Pressure Rain since
9am
mm
Weather Cloud Vis
km
Sea
Height
m
Swell
Dir  Spd
kts
Gust
kts
hPa Trend Height
m
Period
s
Dir
22/11:30pm 15.9 - - - 1017.3 - - - - - - - - -
22/11:00pm 16.4 - - - 1017.4 - - - - - - - - -
22/10:30pm 16.6 - - - 1017.5 - - - - - - - - -
22/10:00pm 16.6 - - - 1017.5 - - - - - - - - -
22/09:30pm 17.0 - - - 1017.5 - - - - - - - - -
22/09:00pm 17.1 - - - 1017.4 - - - - - - - - -
22/08:30pm 17.4 - - - 1017.3 - - - - - - - - -

Other Formats:

Comma delimited format used in spreadsheet applications
http://www.bom.gov.au/fwo/IDT60701/IDT60701.95987.axf

JavaScript Object Notation format (JSON) in row-major order
http://www.bom.gov.au/fwo/IDT60701/IDT60701.95987.json